Weather History for Eagle, AK

Change the Weather History Date:

Friday, November 15, 2013

  Actual Average (PABN) Record (PABN)
Temperature  
Mean Temperature 8 °F -  
Max Temperature 24 °F 11 °F 39 °F (1996)
Min Temperature -7 °F 4 °F -14 °F (2006)
Degree Days  
Heating Degree Days 56    
Moisture  
Dew Point 1 °F    
Average Humidity 75    
Maximum Humidity 87    
Minimum Humidity 51    
Precipitation  
Precipitation 0.00 in - - ()
Sea Level Pressure  
Sea Level Pressure 30.03 in    
Wind  
Wind Speed 4 mph (WSW)    
Max Wind Speed 8 mph    
Max Gust Speed 17 mph    
Visibility 10 miles    
Events      
Averages and records for this station are not official NWS values.
T = Trace of Precipitation, MM = Missing Value Source: NWS Daily Summary

Daily Weather History Graph

Daily Weather History Graph

Search for Another Location

Airport:

Trip Planner

Search our weather history database for the weather conditions in past years. The results will help you decide how hot, cold, wet, or windy it might be!

Date:

Astronomy

Nov. 15, 2013 Rise Set
Actual Time 9:00 AM AKST 3:16 PM AKST
Civil Twilight 7:58 AM AKST 4:19 PM AKST
Nautical Twilight 6:55 AM AKST 5:21 PM AKST
Astronomical Twilight 5:57 AM AKST 6:19 PM AKST
Moon 2:53 PM AKST (11/15) 6:25 AM AKST (11/15)
Length of Visible Light 8h 21m
Length of Day
6h 16m
Waxing Gibbous, 97% of the Moon is Illuminated
Nov 15
Waxing Gibbous
Nov 17
Full
Nov 25
Last Quarter
Dec 2
New
Dec 9
First Quarter

Hourly Weather History & Observations

Time (AKST) Temp. Windchill Dew Point Humidity Pressure Visibility Wind Dir Wind Speed Gust Speed Precip Events Conditions
12:53 AM 24.1 °F 15.2 °F 8.1 °F 51% 29.93 in 10.0 mi NNW 8.1 mph 17.3 mph N/A   Overcast
1:53 AM 21.9 °F 14.5 °F 7.0 °F 53% 29.97 in 10.0 mi WNW 5.8 mph - N/A   Overcast
3:53 AM 19.0 °F 11.1 °F 7.0 °F 59% 30.01 in 10.0 mi WSW 5.8 mph - N/A   Overcast
4:53 AM 18.0 °F 12.7 °F 8.1 °F 65% 30.03 in 10.0 mi West 3.5 mph - N/A   Overcast
5:53 AM 18.0 °F 11.1 °F 7.0 °F 62% 30.04 in 10.0 mi West 4.6 mph - N/A   Overcast
6:53 AM 17.1 °F 11.7 °F 8.1 °F 68% 30.06 in 10.0 mi West 3.5 mph - N/A   Overcast
7:53 AM 17.1 °F 10.0 °F 9.0 °F 71% 30.06 in 10.0 mi West 4.6 mph - N/A   Overcast
8:53 AM 16.0 °F 8.8 °F 10.0 °F 77% 30.07 in 10.0 mi West 4.6 mph - N/A   Overcast
9:53 AM 12.9 °F - 9.0 °F 84% 30.09 in 10.0 mi Calm Calm - N/A   Overcast
10:53 AM 12.0 °F 5.9 °F 7.0 °F 80% 30.08 in 10.0 mi SSE 3.5 mph - N/A   Mostly Cloudy
11:53 AM 10.0 °F - 5.0 °F 80% 30.08 in 10.0 mi Calm Calm - N/A   Mostly Cloudy
12:09 PM 10.0 °F - 6.1 °F 84% 30.03 in 10.0 mi Calm Calm - N/A   Overcast
12:37 PM 10.9 °F - 5.0 °F 77% 30.01 in 10.0 mi Calm Calm - N/A   Scattered Clouds
12:53 PM 10.0 °F - 3.9 °F 76% 30.06 in 10.0 mi Calm Calm - N/A   Clear
1:53 PM 3.0 °F - -0.0 °F 87% 30.07 in 10.0 mi Calm Calm - N/A   Clear
2:53 PM 1.0 °F -8.7 °F -4.0 °F 79% 30.06 in 10.0 mi East 4.6 mph - N/A   Clear
3:53 PM -0.9 °F - -6.0 °F 79% 30.04 in 10.0 mi Calm Calm - N/A   Clear
4:53 PM -2.0 °F -10.1 °F -6.0 °F 83% 30.03 in 10.0 mi South 3.5 mph - N/A   Clear
5:53 PM -0.9 °F - -6.0 °F 79% 30.02 in 10.0 mi Calm Calm - N/A   Clear
6:53 PM -2.0 °F - -7.1 °F 79% 30.01 in 10.0 mi Calm Calm - N/A   Clear
7:53 PM -5.1 °F - -9.0 °F 83% 30.01 in 10.0 mi Calm Calm - N/A   Clear
8:53 PM -5.1 °F - -9.0 °F 83% 30.01 in 10.0 mi Calm Calm - N/A   Clear
9:53 PM -6.0 °F - -11.0 °F 79% 30.01 in 10.0 mi Calm Calm - N/A   Scattered Clouds
10:53 PM -7.1 °F - -13.0 °F 75% 30.02 in 10.0 mi Calm Calm - N/A   Scattered Clouds
11:53 PM -5.1 °F - -9.9 °F 80% 30.02 in 10.0 mi Calm Calm - N/A   Overcast